Location: Shenandoah County Park
(38.9356°N, 78.4524°W)
Time: 12:29:03
(UTC-05:00)

Envisat - Pass Details

Date: 09 October 2022
Orbit: 763 x 765 km, 98.2° (Epoch: 29 November)

Event Time Altitude Azimuth Distance (km) Brightness Sun altitude
Rises 04:37:06 0° 26° (NNE) 3,238 6.8 -31.6°
Reaches altitude 10° 04:39:49 10° 40° (NE) 2,307 6.1 -31.1°
Maximum altitude 04:43:57 25° 95° (E) 1,517 5.1 -30.3°
Drops below altitude 10° 04:48:03 10° 149° (SSE) 2,293 5.6 -29.6°
Sets 04:50:44 0° 163° (SSE) 3,213 6.2 -29.1°
